Time,TemperatureF,DewpointF,PressureIn,WindDirection,WindDirectionDegrees,WindSpeedMPH,WindSpeedGustMPH,Humidity,HourlyPrecipIn,Conditions,Clouds,dailyrainin,SoftwareType,DateUTC
2013-08-20 00:01:00,73.1,69.7,29.82,SE,137,1.0,2.0,89,0.00,,,0.00,VWS V12.08,2013-08-20 05:01:00,
2013-08-20 00:06:00,73.0,69.6,29.82,SE,128,2.0,4.0,89,0.00,,,0.00,VWS V12.08,2013-08-20 05:06:00,
2013-08-20 00:11:00,72.9,69.5,29.82,SE,142,2.0,4.0,89,0.00,,,0.00,VWS V12.08,2013-08-20 05:11:00,
2013-08-20 00:16:00,72.8,69.4,29.82,SSE,155,1.0,4.0,89,0.00,,,0.00,VWS V12.08,2013-08-20 05:16:00,
2013-08-20 00:21:00,72.8,69.4,29.82,SSE,148,4.0,4.0,89,0.00,,,0.00,VWS V12.08,2013-08-20 05:21:00,
2013-08-20 00:26:00,72.8,69.4,29.82,SSE,148,1.0,5.0,89,0.00,,,0.00,VWS V12.08,2013-08-20 05:26:00,
2013-08-20 00:31:00,72.6,69.2,29.82,SSE,163,2.0,3.0,89,0.00,,,0.00,VWS V12.08,2013-08-20 05:31:00,
2013-08-20 00:36:00,72.4,69.3,29.82,SSE,149,3.0,6.0,90,0.00,,,0.00,VWS V12.08,2013-08-20 05:36:00,
2013-08-20 00:41:00,72.2,69.1,29.82,ESE,123,3.0,6.0,90,0.00,,,0.00,VWS V12.08,2013-08-20 05:41:00,
2013-08-20 00:46:00,71.9,68.8,29.82,SSE,163,4.0,6.0,90,0.00,,,0.00,VWS V12.08,2013-08-20 05:46:00,
2013-08-20 00:51:00,71.6,68.8,29.82,SE,142,2.0,6.0,91,0.00,,,0.00,VWS V12.08,2013-08-20 05:51:00,
2013-08-20 00:56:00,71.4,68.6,29.82,South,178,3.0,6.0,91,0.00,,,0.00,VWS V12.08,2013-08-20 05:56:00,
2013-08-20 01:01:00,71.2,68.4,29.82,SSE,157,3.0,3.0,91,0.00,,,0.00,VWS V12.08,2013-08-20 06:01:00,
2013-08-20 01:06:00,71.0,68.2,29.82,South,183,0.0,5.0,91,0.00,,,0.00,VWS V12.08,2013-08-20 06:06:00,
2013-08-20 01:11:00,70.9,68.5,29.82,South,179,1.0,5.0,92,0.00,,,0.00,VWS V12.08,2013-08-20 06:11:00,
2013-08-20 01:16:00,70.8,68.4,29.82,SSE,168,1.0,5.0,92,0.00,,,0.00,VWS V12.08,2013-08-20 06:16:00,
2013-08-20 01:21:00,70.7,68.3,29.82,ESE,119,1.0,5.0,92,0.00,,,0.00,VWS V12.08,2013-08-20 06:21:00,
2013-08-20 01:26:00,70.7,68.3,29.82,SSE,150,1.0,5.0,92,0.00,,,0.00,VWS V12.08,2013-08-20 06:26:00,
2013-08-20 01:31:00,70.6,68.2,29.82,SSE,162,2.0,2.0,92,0.00,,,0.00,VWS V12.08,2013-08-20 06:31:00,
2013-08-20 01:36:00,70.6,68.2,29.82,SSE,151,2.0,3.0,92,0.00,,,0.00,VWS V12.08,2013-08-20 06:36:00,
2013-08-20 01:41:00,70.5,68.4,29.82,SE,134,2.0,3.0,93,0.00,,,0.00,VWS V12.08,2013-08-20 06:41:00,
2013-08-20 01:46:00,70.5,68.4,29.81,SE,146,2.0,3.0,93,0.00,,,0.00,VWS V12.08,2013-08-20 06:46:00,
2013-08-20 01:51:00,70.5,68.4,29.81,SE,137,1.0,3.0,93,0.00,,,0.00,VWS V12.08,2013-08-20 06:51:00,
2013-08-20 01:56:00,70.5,68.4,29.81,ESE,123,2.0,3.0,93,0.00,,,0.00,VWS V12.08,2013-08-20 06:56:00,
2013-08-20 02:01:00,70.5,68.4,29.81,SE,144,2.0,2.0,93,0.00,,,0.00,VWS V12.08,2013-08-20 07:01:00,
2013-08-20 02:06:00,70.5,68.4,29.81,ESE,121,2.0,3.0,93,0.00,,,0.00,VWS V12.08,2013-08-20 07:06:00,
2013-08-20 02:11:00,70.5,68.4,29.81,ESE,103,2.0,3.0,93,0.00,,,0.00,VWS V12.08,2013-08-20 07:11:00,
2013-08-20 02:16:00,70.4,68.3,29.81,ESE,107,1.0,3.0,93,0.00,,,0.00,VWS V12.08,2013-08-20 07:16:00,
2013-08-20 02:21:00,70.3,68.2,29.81,SE,134,3.0,4.0,93,0.00,,,0.00,VWS V12.08,2013-08-20 07:21:00,
2013-08-20 02:26:00,70.2,68.1,29.81,SE,138,2.0,4.0,93,0.00,,,0.00,VWS V12.08,2013-08-20 07:26:00,
2013-08-20 02:31:00,70.2,68.1,29.80,SE,146,2.0,2.0,93,0.00,,,0.00,VWS V12.08,2013-08-20 07:31:00,
2013-08-20 02:36:00,70.1,68.0,29.80,SE,144,2.0,3.0,93,0.00,,,0.00,VWS V12.08,2013-08-20 07:36:00,
2013-08-20 02:41:00,70.1,68.0,29.80,ESE,123,2.0,3.0,93,0.00,,,0.00,VWS V12.08,2013-08-20 07:41:00,
2013-08-20 02:46:00,70.0,67.9,29.80,ESE,105,2.0,3.0,93,0.00,,,0.00,VWS V12.08,2013-08-20 07:46:00,
2013-08-20 02:51:00,69.9,67.8,29.80,ESE,121,2.0,3.0,93,0.00,,,0.00,VWS V12.08,2013-08-20 07:51:00,
2013-08-20 02:56:00,69.8,68.0,29.80,SE,132,1.0,3.0,94,0.00,,,0.00,VWS V12.08,2013-08-20 07:56:00,
2013-08-20 03:01:00,69.8,68.0,29.80,ESE,118,0.0,0.0,94,0.00,,,0.00,VWS V12.08,2013-08-20 08:01:00,
2013-08-20 03:06:00,69.7,67.9,29.80,SE,130,0.0,2.0,94,0.00,,,0.00,VWS V12.08,2013-08-20 08:06:00,
2013-08-20 03:11:00,69.7,67.9,29.80,ESE,115,2.0,3.0,94,0.00,,,0.00,VWS V12.08,2013-08-20 08:11:00,
2013-08-20 03:16:00,69.6,67.8,29.80,ESE,123,2.0,3.0,94,0.00,,,0.00,VWS V12.08,2013-08-20 08:16:00,
2013-08-20 03:21:00,69.5,67.7,29.80,ESE,117,2.0,3.0,94,0.00,,,0.00,VWS V12.08,2013-08-20 08:21:00,
2013-08-20 03:26:00,69.4,67.6,29.80,SE,135,3.0,4.0,94,0.00,,,0.00,VWS V12.08,2013-08-20 08:26:00,
2013-08-20 03:31:00,69.3,67.5,29.80,SE,131,3.0,4.0,94,0.00,,,0.00,VWS V12.08,2013-08-20 08:31:00,
2013-08-20 03:36:00,69.2,67.4,29.79,SSE,159,2.0,5.0,94,0.00,,,0.00,VWS V12.08,2013-08-20 08:36:00,
2013-08-20 03:41:00,69.0,67.2,29.80,SE,136,1.0,5.0,94,0.00,,,0.00,VWS V12.08,2013-08-20 08:41:00,
2013-08-20 03:46:00,69.0,67.2,29.80,SE,134,2.0,5.0,94,0.00,,,0.00,VWS V12.08,2013-08-20 08:46:00,
2013-08-20 03:51:00,68.8,67.0,29.80,SE,127,2.0,5.0,94,0.00,,,0.00,VWS V12.08,2013-08-20 08:51:00,
2013-08-20 03:56:00,68.8,67.3,29.80,SE,142,2.0,5.0,95,0.00,,,0.00,VWS V12.08,2013-08-20 08:56:00,
2013-08-20 04:01:00,68.8,67.3,29.80,ESE,110,3.0,5.0,95,0.00,,,0.00,VWS V12.08,2013-08-20 09:01:00,
2013-08-20 04:06:00,68.6,67.1,29.79,SSE,152,2.0,4.0,95,0.00,,,0.00,VWS V12.08,2013-08-20 09:06:00,
2013-08-20 04:11:00,68.5,67.0,29.79,SE,136,1.0,4.0,95,0.00,,,0.00,VWS V12.08,2013-08-20 09:11:00,
2013-08-20 04:16:00,68.4,66.9,29.79,ESE,123,3.0,5.0,95,0.00,,,0.00,VWS V12.08,2013-08-20 09:16:00,
2013-08-20 04:21:00,68.3,66.8,29.79,ESE,121,3.0,5.0,95,0.00,,,0.00,VWS V12.08,2013-08-20 09:21:00,
2013-08-20 04:26:00,68.3,66.8,29.79,ESE,107,1.0,5.0,95,0.00,,,0.00,VWS V12.08,2013-08-20 09:26:00,
2013-08-20 04:31:00,68.2,66.7,29.79,SE,137,1.0,5.0,95,0.00,,,0.00,VWS V12.08,2013-08-20 09:31:00,
2013-08-20 04:36:00,68.2,66.7,29.79,SE,129,1.0,3.0,95,0.00,,,0.00,VWS V12.08,2013-08-20 09:36:00,
2013-08-20 04:41:00,68.1,66.6,29.79,ESE,113,1.0,3.0,95,0.00,,,0.00,VWS V12.08,2013-08-20 09:41:00,
2013-08-20 04:46:00,68.1,66.6,29.79,ESE,119,2.0,3.0,95,0.00,,,0.00,VWS V12.08,2013-08-20 09:46:00,
2013-08-20 04:51:00,68.1,66.6,29.79,ESE,123,2.0,3.0,95,0.00,,,0.00,VWS V12.08,2013-08-20 09:51:00,
2013-08-20 04:56:00,68.0,66.5,29.79,ESE,120,3.0,4.0,95,0.00,,,0.00,VWS V12.08,2013-08-20 09:56:00,
2013-08-20 05:01:00,68.0,66.5,29.79,SSE,163,0.0,4.0,95,0.00,,,0.00,VWS V12.08,2013-08-20 10:01:00,
2013-08-20 05:06:00,67.9,66.4,29.79,SE,127,1.0,3.0,95,0.00,,,0.00,VWS V12.08,2013-08-20 10:06:00,
2013-08-20 05:11:00,67.9,66.4,29.80,SE,136,2.0,4.0,95,0.00,,,0.00,VWS V12.08,2013-08-20 10:11:00,
2013-08-20 05:16:00,67.8,66.3,29.79,ESE,117,2.0,4.0,95,0.00,,,0.00,VWS V12.08,2013-08-20 10:16:00,
2013-08-20 05:21:00,67.8,66.3,29.80,SE,140,2.0,4.0,95,0.00,,,0.00,VWS V12.08,2013-08-20 10:21:00,
2013-08-20 05:26:00,67.7,66.5,29.80,SE,129,1.0,4.0,96,0.00,,,0.00,VWS V12.08,2013-08-20 10:26:00,
2013-08-20 05:31:00,67.7,66.5,29.80,ESE,121,2.0,4.0,96,0.00,,,0.00,VWS V12.08,2013-08-20 10:31:00,
2013-08-20 05:36:00,67.7,66.2,29.79,SE,129,2.0,3.0,95,0.00,,,0.00,VWS V12.08,2013-08-20 10:36:00,
2013-08-20 05:41:00,67.5,66.0,29.79,ESE,119,1.0,3.0,95,0.00,,,0.00,VWS V12.08,2013-08-20 10:41:00,
2013-08-20 05:46:00,67.5,66.0,29.80,SSE,148,0.0,3.0,95,0.00,,,0.00,VWS V12.08,2013-08-20 10:46:00,
2013-08-20 05:51:00,67.4,66.2,29.80,SSE,148,1.0,3.0,96,0.00,,,0.00,VWS V12.08,2013-08-20 10:51:00,
2013-08-20 05:56:00,67.4,66.2,29.79,ESE,111,1.0,3.0,96,0.00,,,0.00,VWS V12.08,2013-08-20 10:56:00,
2013-08-20 06:01:00,67.3,66.1,29.79,ESE,123,2.0,3.0,96,0.00,,,0.00,VWS V12.08,2013-08-20 11:01:00,
2013-08-20 06:06:00,67.3,66.1,29.80,ESE,109,1.0,3.0,96,0.00,,,0.00,VWS V12.08,2013-08-20 11:06:00,
2013-08-20 06:11:00,67.3,66.1,29.80,East,84,2.0,3.0,96,0.00,,,0.00,VWS V12.08,2013-08-20 11:11:00,
2013-08-20 06:16:00,67.3,66.1,29.80,ESE,103,1.0,3.0,96,0.00,,,0.00,VWS V12.08,2013-08-20 11:16:00,
2013-08-20 06:21:00,67.3,66.1,29.80,ENE,78,1.0,3.0,96,0.00,,,0.00,VWS V12.08,2013-08-20 11:21:00,
2013-08-20 06:26:00,67.4,66.2,29.80,ESE,113,3.0,4.0,96,0.00,,,0.00,VWS V12.08,2013-08-20 11:26:00,
2013-08-20 06:31:00,67.4,66.2,29.80,ESE,112,1.0,4.0,96,0.00,,,0.00,VWS V12.08,2013-08-20 11:31:00,
2013-08-20 06:36:00,67.3,66.1,29.80,SE,128,2.0,3.0,96,0.00,,,0.00,VWS V12.08,2013-08-20 11:36:00,
2013-08-20 06:41:00,67.2,66.0,29.80,SE,129,2.0,3.0,96,0.00,,,0.00,VWS V12.08,2013-08-20 11:41:00,
2013-08-20 06:45:00,67.1,65.9,29.80,SE,142,1.0,3.0,96,0.00,,,0.00,VWS V12.08,2013-08-20 11:45:00,
2013-08-20 06:50:00,67.0,65.8,29.80,ESE,115,2.0,3.0,96,0.00,,,0.00,VWS V12.08,2013-08-20 11:50:00,
2013-08-20 06:55:00,67.0,65.8,29.81,SE,141,1.0,3.0,96,0.00,,,0.00,VWS V12.08,2013-08-20 11:55:00,
2013-08-20 07:00:00,66.9,65.7,29.80,SE,134,2.0,4.0,96,0.00,,,0.00,VWS V12.08,2013-08-20 12:00:00,
2013-08-20 07:05:00,66.9,65.7,29.80,ESE,113,2.0,3.0,96,0.00,,,0.00,VWS V12.08,2013-08-20 12:05:00,
2013-08-20 07:10:00,66.9,65.7,29.81,SE,126,1.0,3.0,96,0.00,,,0.00,VWS V12.08,2013-08-20 12:10:00,
2013-08-20 07:15:00,66.9,65.7,29.81,ESE,105,1.0,3.0,96,0.00,,,0.00,VWS V12.08,2013-08-20 12:15:00,
2013-08-20 07:20:00,67.1,65.9,29.81,SSE,150,1.0,3.0,96,0.00,,,0.00,VWS V12.08,2013-08-20 12:20:00,
2013-08-20 07:25:00,67.2,66.0,29.81,SE,134,1.0,4.0,96,0.00,,,0.00,VWS V12.08,2013-08-20 12:25:00,
2013-08-20 07:30:00,67.4,65.9,29.81,SE,134,1.0,4.0,95,0.00,,,0.00,VWS V12.08,2013-08-20 12:30:00,
2013-08-20 07:35:00,67.7,66.2,29.81,SSE,148,0.0,2.0,95,0.00,,,0.00,VWS V12.08,2013-08-20 12:35:00,
2013-08-20 07:40:00,68.0,66.5,29.81,SE,132,1.0,3.0,95,0.00,,,0.00,VWS V12.08,2013-08-20 12:40:00,
2013-08-20 07:45:00,68.1,66.3,29.81,SSE,154,1.0,3.0,94,0.00,,,0.00,VWS V12.08,2013-08-20 12:45:00,
2013-08-20 07:50:00,68.4,66.6,29.81,South,169,1.0,3.0,94,0.00,,,0.00,VWS V12.08,2013-08-20 12:50:00,
2013-08-20 07:55:00,68.8,67.0,29.81,South,171,1.0,3.0,94,0.00,,,0.00,VWS V12.08,2013-08-20 12:55:00,
2013-08-20 08:00:00,69.1,67.0,29.82,SE,146,2.0,3.0,93,0.00,,,0.00,VWS V12.08,2013-08-20 13:00:00,
2013-08-20 08:05:00,69.3,67.2,29.82,SSE,164,2.0,3.0,93,0.00,,,0.00,VWS V12.08,2013-08-20 13:05:00,
2013-08-20 08:10:00,69.5,67.4,29.82,SE,134,1.0,3.0,93,0.00,,,0.00,VWS V12.08,2013-08-20 13:10:00,
2013-08-20 08:15:00,70.0,67.6,29.82,SSE,162,1.0,3.0,92,0.00,,,0.00,VWS V12.08,2013-08-20 13:15:00,
2013-08-20 08:20:00,70.3,67.6,29.82,SE,146,2.0,3.0,91,0.00,,,0.00,VWS V12.08,2013-08-20 13:20:00,
2013-08-20 08:25:00,70.2,67.4,29.82,SE,142,2.0,5.0,91,0.00,,,0.00,VWS V12.08,2013-08-20 13:25:00,
2013-08-20 08:30:00,70.2,67.8,29.82,SW,234,2.0,6.0,92,0.00,,,0.00,VWS V12.08,2013-08-20 13:30:00,
2013-08-20 08:35:00,70.5,68.1,29.82,SSE,150,2.0,6.0,92,0.00,,,0.00,VWS V12.08,2013-08-20 13:35:00,
2013-08-20 08:40:00,70.5,67.8,29.82,SE,137,6.0,7.0,91,0.00,,,0.00,VWS V12.08,2013-08-20 13:40:00,
2013-08-20 08:45:00,70.5,68.1,29.82,SE,142,4.0,7.0,92,0.00,,,0.00,VWS V12.08,2013-08-20 13:45:00,
2013-08-20 08:50:00,70.7,68.3,29.82,SE,134,6.0,7.0,92,0.00,,,0.00,VWS V12.08,2013-08-20 13:50:00,
2013-08-20 08:55:00,70.9,68.2,29.82,SE,144,5.0,7.0,91,0.00,,,0.00,VWS V12.08,2013-08-20 13:55:00,
2013-08-20 09:00:00,71.1,68.7,29.82,SSW,206,5.0,7.0,92,0.00,,,0.00,VWS V12.08,2013-08-20 14:00:00,
2013-08-20 09:05:00,71.3,68.5,29.82,SW,225,4.0,7.0,91,0.00,,,0.00,VWS V12.08,2013-08-20 14:05:00,
2013-08-20 09:10:00,71.4,68.6,29.82,SE,134,2.0,7.0,91,0.00,,,0.00,VWS V12.08,2013-08-20 14:10:00,
2013-08-20 09:15:00,71.9,69.1,29.82,SE,139,2.0,7.0,91,0.00,,,0.00,VWS V12.08,2013-08-20 14:15:00,
2013-08-20 09:20:00,72.1,69.0,29.82,SSW,207,5.0,7.0,90,0.00,,,0.00,VWS V12.08,2013-08-20 14:20:00,
2013-08-20 09:25:00,72.4,69.3,29.82,SW,214,4.0,7.0,90,0.00,,,0.00,VWS V12.08,2013-08-20 14:25:00,
2013-08-20 09:30:00,72.6,69.2,29.82,West,272,3.0,7.0,89,0.00,,,0.00,VWS V12.08,2013-08-20 14:30:00,
2013-08-20 09:35:00,72.8,69.4,29.82,SSW,203,1.0,4.0,89,0.00,,,0.00,VWS V12.08,2013-08-20 14:35:00,
2013-08-20 09:40:00,73.1,69.7,29.82,SSW,200,2.0,5.0,89,0.00,,,0.00,VWS V12.08,2013-08-20 14:40:00,
2013-08-20 09:45:00,73.6,70.2,29.82,SW,229,2.0,5.0,89,0.00,,,0.00,VWS V12.08,2013-08-20 14:45:00,
2013-08-20 09:50:00,73.9,70.1,29.82,WSW,243,2.0,5.0,88,0.00,,,0.00,VWS V12.08,2013-08-20 14:50:00,
2013-08-20 09:55:00,74.6,70.5,29.81,SSE,156,0.0,5.0,87,0.00,,,0.00,VWS V12.08,2013-08-20 14:55:00,
2013-08-20 10:00:00,75.5,71.0,29.81,ESE,121,1.0,5.0,86,0.00,,,0.00,VWS V12.08,2013-08-20 15:00:00,
2013-08-20 10:05:00,76.2,70.7,29.82,WSW,256,2.0,3.0,83,0.00,,,0.00,VWS V12.08,2013-08-20 15:05:00,
2013-08-20 10:10:00,75.9,70.7,29.81,SSW,207,2.0,3.0,84,0.00,,,0.00,VWS V12.08,2013-08-20 15:10:00,
2013-08-20 10:15:00,76.5,71.3,29.82,SE,124,1.0,3.0,84,0.00,,,0.00,VWS V12.08,2013-08-20 15:15:00,
2013-08-20 10:20:00,76.7,71.2,29.82,SE,129,4.0,5.0,83,0.00,,,0.00,VWS V12.08,2013-08-20 15:20:00,
2013-08-20 10:25:00,76.4,70.9,29.82,SE,133,2.0,5.0,83,0.00,,,0.00,VWS V12.08,2013-08-20 15:25:00,
2013-08-20 10:30:00,76.8,71.2,29.82,SSE,155,4.0,5.0,83,0.00,,,0.00,VWS V12.08,2013-08-20 15:30:00,
2013-08-20 10:35:00,76.8,71.2,29.81,SSE,155,2.0,5.0,83,0.00,,,0.00,VWS V12.08,2013-08-20 15:35:00,
2013-08-20 10:40:00,77.4,71.8,29.81,South,187,1.0,5.0,83,0.00,,,0.00,VWS V12.08,2013-08-20 15:40:00,
2013-08-20 10:45:00,77.7,71.4,29.81,SSW,194,3.0,6.0,81,0.00,,,0.00,VWS V12.08,2013-08-20 15:45:00,
2013-08-20 10:50:00,77.8,71.5,29.82,SSW,210,1.0,6.0,81,0.00,,,0.00,VWS V12.08,2013-08-20 15:50:00,
2013-08-20 10:55:00,78.6,72.3,29.82,SE,146,4.0,6.0,81,0.00,,,0.00,VWS V12.08,2013-08-20 15:55:00,
2013-08-20 11:00:00,78.8,72.1,29.82,SSE,165,4.0,6.0,80,0.00,,,0.00,VWS V12.08,2013-08-20 16:00:00,
2013-08-20 11:05:00,79.0,72.3,29.82,SE,133,7.0,7.0,80,0.00,,,0.00,VWS V12.08,2013-08-20 16:05:00,
2013-08-20 11:10:00,78.6,71.9,29.81,ESE,109,4.0,10.0,80,0.00,,,0.00,VWS V12.08,2013-08-20 16:10:00,
2013-08-20 11:15:00,78.3,72.4,29.81,SE,132,6.0,11.0,82,0.00,,,0.00,VWS V12.08,2013-08-20 16:15:00,
2013-08-20 11:20:00,78.5,72.2,29.82,SSE,165,5.0,11.0,81,0.00,,,0.00,VWS V12.08,2013-08-20 16:20:00,
2013-08-20 11:25:00,79.3,72.6,29.82,SSE,150,8.0,11.0,80,0.00,,,0.00,VWS V12.08,2013-08-20 16:25:00,
2013-08-20 11:30:00,79.2,72.5,29.82,South,190,2.0,11.0,80,0.00,,,0.00,VWS V12.08,2013-08-20 16:30:00,
2013-08-20 11:35:00,79.5,72.8,29.82,SE,144,10.0,11.0,80,0.00,,,0.00,VWS V12.08,2013-08-20 16:35:00,
2013-08-20 11:40:00,79.3,72.6,29.82,SE,144,5.0,11.0,80,0.00,,,0.00,VWS V12.08,2013-08-20 16:40:00,
2013-08-20 11:45:00,79.4,72.7,29.82,South,190,5.0,11.0,80,0.00,,,0.00,VWS V12.08,2013-08-20 16:45:00,
2013-08-20 11:50:00,79.8,72.7,29.81,SE,138,9.0,11.0,79,0.00,,,0.00,VWS V12.08,2013-08-20 16:50:00,
2013-08-20 11:55:00,79.5,72.8,29.81,SE,145,9.0,12.0,80,0.00,,,0.00,VWS V12.08,2013-08-20 16:55:00,
2013-08-20 12:00:00,79.7,73.0,29.81,SSW,196,4.0,12.0,80,0.00,,,0.00,VWS V12.08,2013-08-20 17:00:00,
2013-08-20 12:05:00,80.6,73.5,29.81,SSE,167,3.0,10.0,79,0.00,,,0.00,VWS V12.08,2013-08-20 17:05:00,
2013-08-20 12:10:00,81.2,73.3,29.81,SW,223,7.0,10.0,77,0.00,,,0.00,VWS V12.08,2013-08-20 17:10:00,
2013-08-20 12:15:00,81.4,73.5,29.81,SSW,205,7.0,12.0,77,0.00,,,0.00,VWS V12.08,2013-08-20 17:15:00,
2013-08-20 12:20:00,81.2,73.3,29.81,South,176,4.0,12.0,77,0.00,,,0.00,VWS V12.08,2013-08-20 17:20:00,
2013-08-20 12:25:00,81.7,73.8,29.80,SSE,160,4.0,12.0,77,0.00,,,0.00,VWS V12.08,2013-08-20 17:25:00,
2013-08-20 12:30:00,81.7,73.8,29.80,SE,140,6.0,12.0,77,0.00,,,0.00,VWS V12.08,2013-08-20 17:30:00,
2013-08-20 12:35:00,81.4,73.5,29.81,SSE,150,5.0,10.0,77,0.00,,,0.00,VWS V12.08,2013-08-20 17:35:00,
2013-08-20 12:40:00,81.5,74.0,29.81,South,191,4.0,11.0,78,0.00,,,0.00,VWS V12.08,2013-08-20 17:40:00,
2013-08-20 12:45:00,82.0,74.1,29.80,SSE,165,9.0,11.0,77,0.00,,,0.00,VWS V12.08,2013-08-20 17:45:00,
2013-08-20 12:50:00,82.1,73.8,29.80,SSE,161,2.0,11.0,76,0.00,,,0.00,VWS V12.08,2013-08-20 17:50:00,
2013-08-20 12:55:00,82.6,74.3,29.80,SSE,150,5.0,11.0,76,0.00,,,0.00,VWS V12.08,2013-08-20 17:55:00,
2013-08-20 13:00:00,82.5,74.2,29.80,SE,143,6.0,11.0,76,0.00,,,0.00,VWS V12.08,2013-08-20 18:00:00,
2013-08-20 13:05:00,82.1,74.2,29.80,SSW,209,9.0,11.0,77,0.00,,,0.00,VWS V12.08,2013-08-20 18:05:00,
2013-08-20 13:10:00,82.7,74.4,29.80,SE,138,7.0,12.0,76,0.00,,,0.00,VWS V12.08,2013-08-20 18:10:00,
2013-08-20 13:15:00,82.7,74.4,29.80,SSE,168,5.0,12.0,76,0.00,,,0.00,VWS V12.08,2013-08-20 18:15:00,
2013-08-20 13:20:00,83.6,74.8,29.80,South,179,2.0,13.0,75,0.00,,,0.00,VWS V12.08,2013-08-20 18:20:00,
2013-08-20 13:25:00,83.8,75.0,29.80,SSW,198,6.0,13.0,75,0.00,,,0.00,VWS V12.08,2013-08-20 18:25:00,
2013-08-20 13:30:00,84.2,75.4,29.80,SSW,207,7.0,13.0,75,0.00,,,0.00,VWS V12.08,2013-08-20 18:30:00,
2013-08-20 13:35:00,83.8,74.6,29.80,SSE,157,2.0,13.0,74,0.00,,,0.00,VWS V12.08,2013-08-20 18:35:00,
2013-08-20 13:40:00,83.9,74.7,29.80,South,191,4.0,13.0,74,0.00,,,0.00,VWS V12.08,2013-08-20 18:40:00,
2013-08-20 13:45:00,83.8,75.0,29.80,South,191,10.0,13.0,75,0.00,,,0.00,VWS V12.08,2013-08-20 18:45:00,
2013-08-20 13:50:00,84.0,75.2,29.79,SSW,203,5.0,13.0,75,0.00,,,0.00,VWS V12.08,2013-08-20 18:50:00,
2013-08-20 13:55:00,84.4,75.6,29.79,SSE,160,10.0,13.0,75,0.00,,,0.00,VWS V12.08,2013-08-20 18:55:00,
2013-08-20 14:00:00,84.2,75.4,29.79,South,171,6.0,15.0,75,0.00,,,0.00,VWS V12.08,2013-08-20 19:00:00,
2013-08-20 14:05:00,84.9,75.7,29.79,SSW,204,10.0,13.0,74,0.00,,,0.00,VWS V12.08,2013-08-20 19:05:00,
2013-08-20 14:10:00,84.5,75.7,29.79,SSW,197,10.0,13.0,75,0.00,,,0.00,VWS V12.08,2013-08-20 19:10:00,
2013-08-20 14:15:00,85.1,75.5,29.79,SSE,163,7.0,13.0,73,0.00,,,0.00,VWS V12.08,2013-08-20 19:15:00,
2013-08-20 14:20:00,85.2,76.0,29.79,SW,229,9.0,13.0,74,0.00,,,0.00,VWS V12.08,2013-08-20 19:20:00,
2013-08-20 14:25:00,85.1,75.9,29.79,WSW,240,5.0,14.0,74,0.00,,,0.00,VWS V12.08,2013-08-20 19:25:00,
2013-08-20 14:30:00,85.0,75.4,29.79,SW,234,6.0,14.0,73,0.00,,,0.00,VWS V12.08,2013-08-20 19:30:00,
2013-08-20 14:35:00,85.4,75.3,29.79,SW,225,6.0,12.0,72,0.00,,,0.00,VWS V12.08,2013-08-20 19:35:00,
2013-08-20 14:40:00,85.7,75.6,29.79,SE,145,10.0,13.0,72,0.00,,,0.00,VWS V12.08,2013-08-20 19:40:00,
2013-08-20 14:45:00,85.8,75.3,29.79,SE,135,3.0,13.0,71,0.00,,,0.00,VWS V12.08,2013-08-20 19:45:00,
2013-08-20 14:50:00,86.0,75.5,29.79,SW,217,9.0,13.0,71,0.00,,,0.00,VWS V12.08,2013-08-20 19:50:00,
2013-08-20 14:55:00,85.9,75.0,29.78,SSW,205,12.0,13.0,70,0.00,,,0.00,VWS V12.08,2013-08-20 19:55:00,
2013-08-20 15:00:00,85.8,73.6,29.78,SSW,196,8.0,15.0,67,0.00,,,0.00,VWS V12.08,2013-08-20 20:00:00,
2013-08-20 15:05:00,86.2,72.6,29.78,WSW,241,5.0,13.0,64,0.00,,,0.00,VWS V12.08,2013-08-20 20:05:00,
2013-08-20 15:10:00,87.2,74.5,29.78,South,171,10.0,13.0,66,0.00,,,0.00,VWS V12.08,2013-08-20 20:10:00,
2013-08-20 15:15:00,87.0,74.7,29.78,SSE,153,4.0,13.0,67,0.00,,,0.00,VWS V12.08,2013-08-20 20:15:00,
2013-08-20 15:20:00,87.1,71.5,29.78,SSE,159,10.0,13.0,60,0.00,,,0.00,VWS V12.08,2013-08-20 20:20:00,
2013-08-20 15:25:00,87.1,71.0,29.78,SE,141,7.0,13.0,59,0.00,,,0.00,VWS V12.08,2013-08-20 20:25:00,
2013-08-20 15:30:00,87.5,71.9,29.78,SSW,197,10.0,15.0,60,0.00,,,0.00,VWS V12.08,2013-08-20 20:30:00,
2013-08-20 15:35:00,87.3,72.2,29.78,SSW,209,5.0,14.0,61,0.00,,,0.00,VWS V12.08,2013-08-20 20:35:00,
2013-08-20 15:40:00,87.4,72.8,29.78,SW,218,10.0,14.0,62,0.00,,,0.00,VWS V12.08,2013-08-20 20:40:00,
2013-08-20 15:45:00,87.2,73.6,29.78,SSE,165,5.0,14.0,64,0.00,,,0.00,VWS V12.08,2013-08-20 20:45:00,
2013-08-20 15:50:00,87.6,73.9,29.78,SSW,207,4.0,14.0,64,0.00,,,0.00,VWS V12.08,2013-08-20 20:50:00,
2013-08-20 15:55:00,87.6,73.9,29.77,SE,142,6.0,14.0,64,0.00,,,0.00,VWS V12.08,2013-08-20 20:55:00,
2013-08-20 16:00:00,87.5,73.8,29.77,SSW,197,7.0,15.0,64,0.00,,,0.00,VWS V12.08,2013-08-20 21:00:00,
2013-08-20 16:05:00,87.7,74.0,29.77,SSW,207,5.0,12.0,64,0.00,,,0.00,VWS V12.08,2013-08-20 21:05:00,
2013-08-20 16:10:00,87.5,73.8,29.78,SSW,203,9.0,13.0,64,0.00,,,0.00,VWS V12.08,2013-08-20 21:10:00,
2013-08-20 16:15:00,87.6,73.9,29.77,SE,126,3.0,14.0,64,0.00,,,0.00,VWS V12.08,2013-08-20 21:15:00,
2013-08-20 16:20:00,87.5,73.8,29.77,South,175,11.0,14.0,64,0.00,,,0.00,VWS V12.08,2013-08-20 21:20:00,
2013-08-20 16:25:00,87.6,73.9,29.77,ESE,121,4.0,14.0,64,0.00,,,0.00,VWS V12.08,2013-08-20 21:25:00,
2013-08-20 16:30:00,87.6,73.5,29.77,South,171,2.0,14.0,63,0.00,,,0.00,VWS V12.08,2013-08-20 21:30:00,
2013-08-20 16:35:00,88.2,74.5,29.77,SSW,192,4.0,13.0,64,0.00,,,0.00,VWS V12.08,2013-08-20 21:35:00,
2013-08-20 16:40:00,88.3,73.6,29.77,SSE,153,9.0,13.0,62,0.00,,,0.00,VWS V12.08,2013-08-20 21:40:00,
2013-08-20 16:45:00,88.3,74.6,29.77,SSW,196,9.0,13.0,64,0.00,,,0.00,VWS V12.08,2013-08-20 21:45:00,
2013-08-20 16:50:00,88.1,73.4,29.77,SSE,153,10.0,13.0,62,0.00,,,0.00,VWS V12.08,2013-08-20 21:50:00,
2013-08-20 16:55:00,87.6,74.4,29.76,SE,143,9.0,13.0,65,0.00,,,0.00,VWS V12.08,2013-08-20 21:55:00,
2013-08-20 17:00:00,87.7,74.9,29.76,SSE,147,6.0,13.0,66,0.00,,,0.00,VWS V12.08,2013-08-20 22:00:00,
2013-08-20 17:05:00,87.7,74.5,29.77,SSW,211,7.0,12.0,65,0.00,,,0.00,VWS V12.08,2013-08-20 22:05:00,
2013-08-20 17:10:00,87.6,73.9,29.77,SE,146,11.0,12.0,64,0.00,,,0.00,VWS V12.08,2013-08-20 22:10:00,
2013-08-20 17:15:00,87.5,73.8,29.77,SSE,160,4.0,12.0,64,0.00,,,0.00,VWS V12.08,2013-08-20 22:15:00,
2013-08-20 17:20:00,87.8,74.1,29.77,SSW,200,6.0,12.0,64,0.00,,,0.00,VWS V12.08,2013-08-20 22:20:00,
2013-08-20 17:25:00,87.8,72.2,29.77,South,182,7.0,13.0,60,0.00,,,0.00,VWS V12.08,2013-08-20 22:25:00,
2013-08-20 17:30:00,87.4,73.3,29.77,SSE,162,8.0,14.0,63,0.00,,,0.00,VWS V12.08,2013-08-20 22:30:00,
2013-08-20 17:35:00,87.2,73.1,29.77,SE,142,4.0,12.0,63,0.00,,,0.00,VWS V12.08,2013-08-20 22:35:00,
2013-08-20 17:40:00,87.1,73.9,29.76,SSE,165,2.0,12.0,65,0.00,,,0.00,VWS V12.08,2013-08-20 22:40:00,
2013-08-20 17:45:00,87.0,72.9,29.76,South,178,7.0,12.0,63,0.00,,,0.00,VWS V12.08,2013-08-20 22:45:00,
2013-08-20 17:50:00,86.6,73.4,29.76,South,175,6.0,12.0,65,0.00,,,0.00,VWS V12.08,2013-08-20 22:50:00,
2013-08-20 17:55:00,86.5,73.8,29.76,SSW,200,3.0,12.0,66,0.00,,,0.00,VWS V12.08,2013-08-20 22:55:00,
2013-08-20 18:00:00,86.4,73.2,29.77,SSE,147,6.0,12.0,65,0.00,,,0.00,VWS V12.08,2013-08-20 23:00:00,
2013-08-20 18:05:00,86.3,73.6,29.76,SSW,203,2.0,10.0,66,0.00,,,0.00,VWS V12.08,2013-08-20 23:05:00,
2013-08-20 18:10:00,86.5,74.2,29.76,SSE,158,3.0,10.0,67,0.00,,,0.00,VWS V12.08,2013-08-20 23:10:00,
2013-08-20 18:15:00,86.3,74.5,29.77,SE,145,4.0,10.0,68,0.00,,,0.00,VWS V12.08,2013-08-20 23:15:00,
2013-08-20 18:20:00,86.2,74.8,29.77,South,177,3.0,10.0,69,0.00,,,0.00,VWS V12.08,2013-08-20 23:20:00,
2013-08-20 18:25:00,86.4,75.0,29.77,SSW,202,4.0,10.0,69,0.00,,,0.00,VWS V12.08,2013-08-20 23:25:00,
2013-08-20 18:30:00,86.3,74.9,29.77,SE,139,5.0,10.0,69,0.00,,,0.00,VWS V12.08,2013-08-20 23:30:00,
2013-08-20 18:35:00,86.2,74.8,29.77,South,180,4.0,7.0,69,0.00,,,0.00,VWS V12.08,2013-08-20 23:35:00,
2013-08-20 18:40:00,86.3,75.4,29.77,SE,134,4.0,7.0,70,0.00,,,0.00,VWS V12.08,2013-08-20 23:40:00,
2013-08-20 18:45:00,86.1,75.2,29.77,SE,136,3.0,8.0,70,0.00,,,0.00,VWS V12.08,2013-08-20 23:45:00,
2013-08-20 18:50:00,85.9,75.4,29.77,SE,132,3.0,8.0,71,0.00,,,0.00,VWS V12.08,2013-08-20 23:50:00,
2013-08-20 18:55:00,86.1,75.6,29.77,South,190,1.0,8.0,71,0.00,,,0.00,VWS V12.08,2013-08-20 23:55:00,
2013-08-20 19:00:00,86.2,76.1,29.77,South,178,5.0,8.0,72,0.00,,,0.00,VWS V12.08,2013-08-21 00:00:00,
2013-08-20 19:05:00,85.8,75.7,29.77,SE,137,2.0,9.0,72,0.00,,,0.00,VWS V12.08,2013-08-21 00:05:00,
2013-08-20 19:10:00,85.6,76.0,29.77,SSE,155,7.0,9.0,73,0.00,,,0.00,VWS V12.08,2013-08-21 00:10:00,
2013-08-20 19:15:00,85.4,76.2,29.77,SSE,168,4.0,9.0,74,0.00,,,0.00,VWS V12.08,2013-08-21 00:15:00,
2013-08-20 19:20:00,85.1,75.9,29.77,South,175,4.0,11.0,74,0.00,,,0.00,VWS V12.08,2013-08-21 00:20:00,
2013-08-20 19:25:00,85.0,76.2,29.77,South,171,4.0,11.0,75,0.00,,,0.00,VWS V12.08,2013-08-21 00:25:00,
2013-08-20 19:30:00,84.7,75.9,29.77,SW,214,1.0,11.0,75,0.00,,,0.00,VWS V12.08,2013-08-21 00:30:00,
2013-08-20 19:35:00,84.6,76.2,29.77,SSE,168,4.0,7.0,76,0.00,,,0.00,VWS V12.08,2013-08-21 00:35:00,
2013-08-20 19:40:00,84.2,75.8,29.77,SSW,199,5.0,7.0,76,0.00,,,0.00,VWS V12.08,2013-08-21 00:40:00,
2013-08-20 19:45:00,83.9,75.9,29.77,SSW,195,2.0,7.0,77,0.00,,,0.00,VWS V12.08,2013-08-21 00:45:00,
2013-08-20 19:50:00,83.6,76.0,29.77,SE,134,4.0,7.0,78,0.00,,,0.00,VWS V12.08,2013-08-21 00:50:00,
2013-08-20 19:55:00,83.1,75.9,29.77,SSE,153,2.0,7.0,79,0.00,,,0.00,VWS V12.08,2013-08-21 00:55:00,
2013-08-20 20:00:00,82.6,75.8,29.77,SSE,153,1.0,7.0,80,0.00,,,0.00,VWS V12.08,2013-08-21 01:00:00,
2013-08-20 20:05:00,82.3,75.9,29.77,SSE,160,2.0,6.0,81,0.00,,,0.00,VWS V12.08,2013-08-21 01:05:00,
2013-08-20 20:10:00,81.9,75.9,29.77,SE,140,2.0,6.0,82,0.00,,,0.00,VWS V12.08,2013-08-21 01:10:00,
2013-08-20 20:15:00,81.4,76.1,29.77,SE,142,4.0,6.0,84,0.00,,,0.00,VWS V12.08,2013-08-21 01:15:00,
2013-08-20 20:19:00,81.1,76.2,29.77,SSE,147,6.0,7.0,85,0.00,,,0.00,VWS V12.08,2013-08-21 01:19:00,
2013-08-20 20:24:00,80.7,76.1,29.77,SSE,161,6.0,9.0,86,0.00,,,0.00,VWS V12.08,2013-08-21 01:24:00,
2013-08-20 20:29:00,80.5,75.9,29.77,SSE,148,5.0,9.0,86,0.00,,,0.00,VWS V12.08,2013-08-21 01:29:00,
2013-08-20 20:34:00,80.2,75.6,29.77,South,191,3.0,8.0,86,0.00,,,0.00,VWS V12.08,2013-08-21 01:34:00,
2013-08-20 20:39:00,80.0,75.8,29.77,SSE,150,5.0,8.0,87,0.00,,,0.00,VWS V12.08,2013-08-21 01:39:00,
2013-08-20 20:44:00,79.8,75.6,29.77,South,169,4.0,8.0,87,0.00,,,0.00,VWS V12.08,2013-08-21 01:44:00,
2013-08-20 20:49:00,79.5,75.3,29.78,South,184,5.0,9.0,87,0.00,,,0.00,VWS V12.08,2013-08-21 01:49:00,
2013-08-20 20:54:00,79.2,75.3,29.78,SSW,210,2.0,9.0,88,0.00,,,0.00,VWS V12.08,2013-08-21 01:54:00,
2013-08-20 20:59:00,79.0,75.2,29.78,South,186,4.0,9.0,88,0.00,,,0.00,VWS V12.08,2013-08-21 01:59:00,
2013-08-20 21:04:00,78.8,74.9,29.78,SW,218,2.0,5.0,88,0.00,,,0.00,VWS V12.08,2013-08-21 02:04:00,
2013-08-20 21:09:00,78.6,75.1,29.78,South,188,2.0,5.0,89,0.00,,,0.00,VWS V12.08,2013-08-21 02:09:00,
2013-08-20 21:14:00,78.4,74.9,29.78,SSW,195,1.0,5.0,89,0.00,,,0.00,VWS V12.08,2013-08-21 02:14:00,
2013-08-20 21:19:00,78.4,74.9,29.78,SSE,153,1.0,5.0,89,0.00,,,0.00,VWS V12.08,2013-08-21 02:19:00,
2013-08-20 21:24:00,78.3,74.8,29.78,South,190,1.0,5.0,89,0.00,,,0.00,VWS V12.08,2013-08-21 02:24:00,
2013-08-20 21:29:00,78.1,74.9,29.79,SE,144,1.0,5.0,90,0.00,,,0.00,VWS V12.08,2013-08-21 02:29:00,
2013-08-20 21:34:00,78.0,74.8,29.78,SSW,207,2.0,7.0,90,0.00,,,0.00,VWS V12.08,2013-08-21 02:34:00,
2013-08-20 21:39:00,77.8,74.6,29.79,SSE,160,3.0,7.0,90,0.00,,,0.00,VWS V12.08,2013-08-21 02:39:00,
2013-08-20 21:44:00,77.6,74.4,29.79,SE,135,5.0,7.0,90,0.00,,,0.00,VWS V12.08,2013-08-21 02:44:00,
2013-08-20 21:49:00,77.4,74.6,29.79,South,171,5.0,11.0,91,0.00,,,0.00,VWS V12.08,2013-08-21 02:49:00,
2013-08-20 21:54:00,77.3,74.5,29.79,South,186,4.0,11.0,91,0.00,,,0.00,VWS V12.08,2013-08-21 02:54:00,
2013-08-20 21:59:00,77.2,74.4,29.79,SSE,159,6.0,11.0,91,0.00,,,0.00,VWS V12.08,2013-08-21 02:59:00,
2013-08-20 22:04:00,77.1,74.3,29.79,South,169,4.0,9.0,91,0.00,,,0.00,VWS V12.08,2013-08-21 03:04:00,
2013-08-20 22:09:00,77.0,74.2,29.79,SE,142,3.0,9.0,91,0.00,,,0.00,VWS V12.08,2013-08-21 03:09:00,
2013-08-20 22:14:00,77.0,74.2,29.79,South,177,2.0,9.0,91,0.00,,,0.00,VWS V12.08,2013-08-21 03:14:00,
2013-08-20 22:19:00,76.9,74.1,29.79,SSW,205,4.0,9.0,91,0.00,,,0.00,VWS V12.08,2013-08-21 03:19:00,
2013-08-20 22:24:00,76.8,74.0,29.79,SSW,195,2.0,9.0,91,0.00,,,0.00,VWS V12.08,2013-08-21 03:24:00,
2013-08-20 22:29:00,76.7,73.9,29.79,ESE,109,4.0,9.0,91,0.00,,,0.00,VWS V12.08,2013-08-21 03:29:00,
2013-08-20 22:34:00,76.6,73.8,29.78,SE,132,3.0,5.0,91,0.00,,,0.00,VWS V12.08,2013-08-21 03:34:00,
2013-08-20 22:39:00,76.4,73.6,29.78,SSE,165,5.0,10.0,91,0.00,,,0.00,VWS V12.08,2013-08-21 03:39:00,
2013-08-20 22:44:00,76.3,73.8,29.78,SE,142,4.0,10.0,92,0.00,,,0.00,VWS V12.08,2013-08-21 03:44:00,
2013-08-20 22:49:00,76.2,73.7,29.78,SSW,205,4.0,10.0,92,0.00,,,0.00,VWS V12.08,2013-08-21 03:49:00,
2013-08-20 22:54:00,76.0,73.5,29.78,SSW,199,3.0,10.0,92,0.00,,,0.00,VWS V12.08,2013-08-21 03:54:00,
2013-08-20 22:59:00,75.9,73.4,29.78,South,178,7.0,10.0,92,0.00,,,0.00,VWS V12.08,2013-08-21 03:59:00,
2013-08-20 23:01:00,75.9,73.4,29.78,SSE,159,7.0,10.0,92,0.00,,,0.00,VWS V12.08,2013-08-21 04:01:00,
2013-08-20 23:06:00,75.8,73.3,29.79,SSW,203,4.0,7.0,92,0.00,,,0.00,VWS V12.08,2013-08-21 04:06:00,
2013-08-20 23:11:00,75.6,73.1,29.79,SSW,203,4.0,7.0,92,0.00,,,0.00,VWS V12.08,2013-08-21 04:11:00,
2013-08-20 23:16:00,75.5,73.0,29.79,SSE,157,5.0,7.0,92,0.00,,,0.00,VWS V12.08,2013-08-21 04:16:00,
2013-08-20 23:21:00,75.4,72.9,29.79,SSE,152,5.0,10.0,92,0.00,,,0.00,VWS V12.08,2013-08-21 04:21:00,
2013-08-20 23:26:00,75.3,72.8,29.79,SSE,162,4.0,10.0,92,0.00,,,0.00,VWS V12.08,2013-08-21 04:26:00,
2013-08-20 23:31:00,75.1,72.9,29.79,South,191,2.0,3.0,93,0.00,,,0.00,VWS V12.08,2013-08-21 04:31:00,
2013-08-20 23:36:00,75.0,72.8,29.79,South,178,6.0,6.0,93,0.00,,,0.00,VWS V12.08,2013-08-21 04:36:00,
2013-08-20 23:41:00,74.9,72.7,29.80,South,172,3.0,8.0,93,0.00,,,0.00,VWS V12.08,2013-08-21 04:41:00,
2013-08-20 23:46:00,74.8,72.6,29.79,SSW,203,4.0,8.0,93,0.00,,,0.00,VWS V12.08,2013-08-21 04:46:00,
2013-08-20 23:51:00,74.7,72.6,29.80,South,178,5.0,8.0,93,0.00,,,0.00,VWS V12.08,2013-08-21 04:51:00,
2013-08-20 23:56:00,74.5,72.3,29.80,SSW,209,3.0,8.0,93,0.00,,,0.00,VWS V12.08,2013-08-21 04:56:00,